Temp
6 7 6 5 5 5 5 5 5 5 4 4 4 4 3 3 3 2 2 2 1 0 -1 -1 -1 -2 -3 -4 -5 -6 -6 -6 -8 -9 -10 -11 -11 -12 -12 -12 -12 -11 -12 -10
7 7 6 5 5 6 6 5 5 5 4 4 4 4 3 3 3 2 2 2 1 0 -0 -1 -2 -2 -3 -4 -5 -5 -6 -7 -8 -9 -10 -11 -12 -13 -13 -13 -13 -13 -13 -11
7 6 6 6 5 5 5 5 5 5 4 5 4 4 4 3 2 3 2 2 1 1 0 -0 -1 -2 -3 -4 -5 -6 -7 -8 -8 -10 -10 -11 -13 -14 -14 -14 -14 -13 -12 -11
6 6 6 6 6 5 5 4 4 4 4 4 4 3 4 3 3 3 3 2 2 1 0 -1 -1 -2 -3 -4 -5 -6 -8 -8 -9 -9 -10 -11 -13 -14 -14 -14 -14 -13 -12 -11
6 6 6 6 6 6 5 5 4 3 3 3 4 3 4 3 4 3 3 2 1 1 0 -1 -1 -2 -3 -4 -5 -6 -8 -9 -10 -10 -11 -12 -13 -14 -15 -14 -13 -13 -12 -12
6 6 6 6 6 6 5 5 5 3 3 2 4 4 4 4 4 3 3 2 2 2 0 -0 -1 -2 -3 -4 -5 -6 -7 -9 -10 -10 -11 -12 -13 -13 -13 -14 -14 -14 -13 -12
6 6 6 5 6 5 5 6 4 2 -1 0 4 3 5 4 4 3 3 2 2 1 1 0 -1 -2 -2 -3 -5 -6 -8 -9 -10 -11 -11 -12 -12 -13 -13 -14 -13 -13 -13 -12
6 6 6 5 5 5 5 4 3 3 -3 0 3 3 5 4 4 3 2 2 2 1 1 0 -0 -1 -2 -3 -4 -6 -7 -8 -10 -11 -11 -11 -11 -12 -12 -14 -14 -13 -13 -11
6 6 5 5 5 5 4 4 3 2 1 0 3 4 4 4 4 3 2 2 2 2 1 1 0 -1 -2 -3 -4 -5 -6 -8 -9 -11 -11 -11 -11 -12 -13 -13 -13 -13 -13 -11
5 5 6 5 4 4 4 3 3 2 -1 -1 2 3 4 4 3 3 2 3 2 2 2 1 0 -1 -1 -2 -3 -4 -6 -7 -9 -10 -10 -11 -11 -12 -13 -13 -14 -13 -12 -10
5 4 5 5 5 4 4 4 3 2 1 -1 -6 2 4 4 3 3 2 2 2 2 2 1 0 -0 -1 -2 -3 -4 -5 -7 -8 -9 -10 -10 -11 -12 -12 -12 -13 -12 -11 -10
5 4 4 5 4 3 3 3 3 3 2 1 0 2 4 4 4 3 2 2 2 2 2 2 1 0 -1 -1 -2 -3 -4 -6 -7 -8 -9 -9 -10 -11 -11 -12 -12 -12 -10 -9
4 4 4 4 4 4 3 3 2 2 1 1 1 4 5 4 3 3 2 3 2 2 2 2 1 1 -0 -1 -2 -3 -4 -5 -6 -7 -8 -9 -10 -10 -11 -11 -11 -11 -9 -9
3 3 4 4 4 3 3 3 2 1 1 2 2 4 5 4 3 3 2 2 3 2 2 2 1 1 0 -1 -1 -2 -3 -4 -5 -6 -7 -8 -9 -9 -10 -11 -10 -10 -9 -8
3 3 3 3 3 3 3 4 3 1 2 1 5 3 6 4 3 3 3 3 3 2 2 2 2 1 1 0 -1 -2 -2 -3 -4 -5 -5 -6 -8 -8 -9 -10 -9 -9 -8 -8
3 2 2 3 3 3 3 5 4 3 3 3 3 4 4 4 3 3 3 3 3 2 2 2 2 2 1 1 0 -1 -2 -2 -3 -4 -4 -5 -6 -7 -7 -8 -9 -8 -7 -8
2 1 1 2 2 3 5 5 5 5 4 4 4 5 4 4 4 3 3 3 3 3 2 2 2 2 2 1 1 -0 -1 -2 -3 -3 -3 -4 -4 -5 -6 -6 -7 -7 -6 -6
2 1 -0 0 1 -4 6 5 4 4 4 4 4 4 4 4 4 3 3 3 3 3 3 2 2 2 1 1 1 0 -0 -1 -2 -2 -3 -3 -4 -4 -4 -4 -5 -6 -6 -5
2 1 -0 -0 -1 3 6 5 4 4 4 4 4 4 4 4 3 4 3 3 3 3 3 2 2 2 2 1 1 1 0 -0 -1 -1 -2 -2 -2 -3 -3 -4 -4 -4 -4 -4
2 0 -0 -1 -1 -2 4 4 4 3 4 3 4 4 3 3 3 3 3 4 3 3 2 2 2 2 2 2 1 1 1 0 -0 -0 -1 -2 -2 -2 -3 -3 -3 -3 -3 -3
2 1 1 -0 -1 1 4 3 3 3 3 3 3 3 2 2 2 2 2 3 3 3 2 2 2 2 2 2 1 1 1 0 0 -0 -1 -1 -1 -2 -2 -2 -2 -2 -2 -2
2 2 1 0 -1 1 4 4 3 3 3 2 2 2 2 2 2 2 2 2 3 3 3 2 2 2 1 1 1 1 1 0 0 -0 -0 -0 -1 -1 -1 -2 -2 -2 -2 -2
2 3 3 2 3 4 3 3 3 3 3 2 1 2 2 2 3 2 2 2 3 3 3 3 2 2 1 1 1 1 1 0 0 -0 -0 -1 -1 -1 -1 -1 -1 -2 -2 -2
2 1 1 1 3 4 3 4 3 3 2 2 1 2 2 2 2 2 2 3 3 3 3 3 2 2 1 1 1 1 0 0 0 -0 -1 -1 -1 -1 -1 -1 -1 -2 -2 -2
1 1 2 2 4 3 4 4 3 2 2 2 2 3 2 2 2 2 3 2 2 3 2 3 2 2 1 1 1 1 0 -0 -0 -0 -0 -1 -1 -1 -1 -1 -1 -1 -2 -2
4 4 3 3 4 2 4 4 3 3 2 3 3 2 2 2 2 3 3 3 3 2 2 2 2 2 1 1 1 0 0 0 -0 -0 -1 -1 -1 -1 -2 -2 -2 -2 -2 -2
Height
3182 3184 3181 3182 3182 3182 3182 3181 3180 3179 3179 3178 3175 3173 3171 3169 3168 3166 3163 3160 3157 3151 3144 3140 3136 3128 3120 3112 3105 3096 3088 3083 3077 3072 3066 3060 3054 3049 3046 3043 3040 3040 3039 3039
3185 3183 3184 3182 3182 3183 3182 3180 3179 3178 3177 3176 3174 3172 3169 3167 3166 3163 3164 3159 3154 3148 3143 3138 3130 3122 3114 3106 3098 3091 3083 3078 3072 3066 3058 3052 3046 3042 3039 3037 3035 3035 3035 3035
3186 3187 3185 3184 3183 3182 3181 3179 3178 3178 3176 3174 3172 3169 3167 3166 3163 3165 3161 3157 3151 3146 3140 3132 3124 3117 3109 3101 3093 3084 3077 3071 3066 3059 3052 3045 3040 3037 3035 3031 3029 3030 3031 3032
3188 3187 3186 3184 3183 3182 3180 3178 3178 3177 3175 3174 3172 3169 3164 3164 3164 3162 3159 3155 3149 3141 3135 3128 3120 3113 3105 3097 3088 3080 3072 3066 3061 3054 3047 3041 3035 3032 3030 3028 3027 3026 3026 3025
3190 3188 3187 3185 3183 3181 3180 3177 3176 3175 3174 3173 3170 3170 3162 3162 3161 3161 3159 3152 3143 3138 3131 3124 3117 3109 3101 3092 3084 3075 3066 3059 3054 3047 3042 3037 3033 3029 3026 3024 3024 3023 3023 3022
3188 3187 3186 3185 3183 3181 3178 3175 3172 3172 3172 3171 3168 3170 3160 3159 3160 3159 3154 3146 3141 3136 3127 3121 3114 3106 3098 3090 3080 3070 3062 3055 3050 3045 3039 3034 3030 3026 3023 3020 3019 3019 3019 3019
3187 3187 3185 3184 3182 3180 3178 3174 3172 3173 3173 3171 3167 3167 3158 3158 3157 3155 3149 3143 3139 3132 3125 3119 3112 3105 3097 3088 3079 3069 3060 3052 3047 3041 3036 3031 3027 3023 3021 3018 3017 3017 3017 3018
3186 3184 3184 3183 3181 3180 3177 3176 3175 3175 3177 3169 3165 3161 3157 3155 3153 3152 3147 3143 3136 3130 3123 3117 3111 3104 3096 3088 3079 3069 3060 3051 3045 3039 3033 3028 3025 3022 3020 3018 3016 3015 3014 3015
3186 3184 3183 3182 3180 3180 3178 3177 3176 3173 3173 3171 3162 3158 3156 3153 3152 3149 3145 3141 3134 3128 3121 3116 3110 3103 3095 3087 3079 3069 3059 3051 3044 3039 3032 3028 3025 3022 3021 3019 3017 3015 3014 3015
3186 3183 3182 3180 3179 3178 3177 3177 3175 3173 3174 3172 3159 3156 3153 3151 3150 3148 3144 3139 3132 3126 3120 3115 3109 3102 3095 3087 3078 3069 3060 3052 3045 3039 3033 3028 3025 3022 3021 3019 3018 3016 3014 3016
3184 3183 3181 3179 3177 3176 3176 3174 3173 3173 3172 3171 3170 3154 3152 3150 3148 3145 3141 3135 3130 3126 3120 3114 3108 3101 3094 3087 3079 3070 3062 3054 3046 3040 3035 3030 3026 3023 3020 3019 3018 3016 3015 3017
3182 3180 3177 3176 3174 3173 3173 3172 3172 3171 3171 3169 3166 3152 3148 3147 3145 3142 3137 3134 3130 3125 3120 3113 3107 3100 3093 3087 3080 3073 3065 3056 3048 3042 3037 3032 3028 3025 3022 3020 3019 3016 3017 3018
3181 3178 3176 3173 3173 3171 3170 3170 3169 3168 3166 3163 3164 3150 3147 3145 3143 3140 3135 3133 3129 3124 3119 3113 3107 3101 3093 3088 3082 3076 3068 3059 3052 3044 3040 3035 3030 3028 3025 3023 3021 3018 3019 3021
3178 3175 3175 3173 3171 3170 3166 3165 3165 3164 3161 3158 3149 3145 3144 3144 3141 3139 3136 3133 3128 3124 3119 3113 3107 3100 3095 3090 3084 3078 3071 3064 3056 3049 3043 3039 3034 3031 3028 3026 3024 3022 3023 3026
3175 3173 3171 3168 3166 3163 3158 3156 3157 3155 3154 3153 3142 3143 3140 3141 3139 3137 3135 3131 3126 3122 3118 3112 3106 3101 3096 3090 3085 3079 3074 3068 3061 3055 3048 3043 3039 3036 3033 3030 3028 3029 3028 3030
3170 3169 3166 3159 3159 3155 3151 3149 3149 3149 3147 3145 3143 3139 3141 3139 3137 3135 3131 3128 3124 3121 3116 3111 3106 3102 3096 3091 3086 3081 3076 3071 3066 3060 3053 3048 3043 3039 3038 3036 3033 3033 3034 3036
3167 3165 3163 3155 3155 3152 3146 3143 3143 3143 3142 3141 3139 3138 3138 3136 3135 3132 3129 3126 3123 3119 3114 3110 3106 3102 3097 3092 3088 3084 3080 3075 3070 3066 3060 3055 3049 3045 3042 3041 3040 3038 3038 3040
3162 3162 3161 3156 3154 3151 3143 3142 3140 3139 3139 3138 3135 3135 3134 3133 3132 3130 3127 3123 3120 3116 3113 3109 3106 3102 3098 3093 3089 3085 3081 3077 3073 3068 3065 3061 3056 3052 3049 3047 3046 3045 3044 3044
3159 3159 3160 3158 3154 3147 3138 3138 3139 3137 3137 3133 3130 3131 3131 3130 3127 3127 3123 3121 3117 3114 3111 3107 3105 3101 3098 3094 3090 3086 3083 3079 3075 3071 3067 3064 3061 3058 3055 3054 3052 3051 3050 3049
3156 3156 3158 3155 3155 3147 3138 3137 3136 3134 3133 3132 3131 3130 3128 3126 3122 3120 3118 3116 3115 3112 3109 3105 3102 3100 3097 3094 3090 3087 3084 3081 3077 3074 3071 3067 3064 3062 3060 3058 3056 3055 3055 3055
3151 3151 3150 3150 3149 3138 3135 3134 3134 3135 3138 3132 3130 3127 3125 3123 3122 3117 3114 3111 3110 3108 3106 3103 3101 3099 3096 3094 3091 3088 3086 3083 3080 3076 3073 3070 3066 3063 3061 3060 3060 3059 3058 3056
3146 3146 3143 3143 3142 3135 3131 3132 3133 3132 3129 3127 3125 3122 3118 3115 3113 3111 3109 3107 3106 3105 3104 3102 3099 3097 3095 3093 3091 3088 3086 3083 3080 3077 3075 3072 3069 3067 3064 3063 3061 3060 3059 3058
3140 3139 3138 3137 3130 3130 3128 3126 3125 3123 3122 3120 3117 3114 3111 3109 3107 3105 3104 3102 3100 3099 3098 3097 3096 3094 3092 3090 3088 3086 3084 3082 3080 3078 3076 3073 3070 3068 3066 3065 3062 3061 3059 3058
3131 3133 3129 3128 3122 3121 3121 3118 3116 3116 3114 3114 3111 3108 3106 3103 3102 3101 3099 3097 3095 3094 3093 3091 3090 3089 3087 3085 3084 3082 3081 3079 3078 3076 3074 3072 3070 3068 3065 3063 3062 3060 3058 3056
3125 3123 3120 3118 3114 3112 3111 3109 3106 3105 3104 3104 3103 3103 3101 3099 3097 3095 3093 3091 3090 3089 3087 3086 3084 3084 3083 3081 3080 3079 3077 3075 3074 3072 3070 3067 3065 3064 3062 3061 3058 3056 3054 3053
3111 3111 3111 3107 3107 3103 3101 3101 3100 3097 3095 3096 3096 3095 3095 3093 3092 3089 3087 3085 3084 3083 3083 3081 3079 3079 3079 3078 3076 3075 3073 3070 3068 3066 3064 3063 3060 3058 3056 3055 3054 3052 3049 3047
Wind_Speed
15 8 15 12 6 6 2 4 4 4 3 7 9 13 15 13 15 19 30 29 31 35 33 39 37 37 38 39 41 42 35 35 38 41 41 43 44 37 29 22 23 24 23 25
8 13 10 11 9 3 3 8 3 1 4 8 9 10 13 15 12 16 29 30 30 32 32 35 38 39 39 40 44 40 31 32 35 38 42 44 35 24 17 16 19 18 17 19
15 10 9 10 7 7 5 8 3 3 6 7 8 10 11 8 9 16 28 29 28 30 33 37 38 38 39 41 42 40 33 33 35 36 33 31 20 20 19 19 19 23 17 11
10 11 14 13 8 10 8 6 2 5 9 3 6 6 11 11 16 16 29 27 28 31 34 36 37 39 39 40 42 40 34 31 30 31 27 22 20 20 18 15 15 17 20 16
7 8 9 15 11 11 12 9 5 5 7 9 2 6 7 14 14 17 27 27 31 32 34 36 38 38 39 41 42 40 35 29 28 29 24 22 20 18 15 16 20 21 22 23
6 4 5 12 12 10 14 11 1 3 5 4 5 5 10 12 12 17 27 30 31 31 34 36 38 38 39 39 41 40 34 28 28 25 23 22 22 19 16 13 14 16 23 27
6 4 5 10 13 7 10 8 3 2 2 6 4 10 9 11 17 19 27 31 31 32 33 36 37 37 37 38 39 38 33 28 25 23 22 21 19 14 13 7 3 6 17 26
4 5 7 9 12 5 10 10 3 3 2 7 13 7 7 14 17 22 26 32 33 33 33 35 36 35 35 36 38 37 33 29 26 25 23 20 15 12 7 5 7 7 6 10
4 4 5 6 9 5 3 5 5 3 5 5 5 9 14 16 13 22 25 33 32 33 34 34 34 34 34 35 37 38 35 31 28 25 22 17 14 8 8 8 6 6 7 2
5 6 5 7 9 5 5 5 4 3 1 4 8 11 13 13 15 23 26 34 32 33 33 33 33 34 34 35 36 37 36 32 29 25 22 17 14 10 4 6 4 6 5 3
8 5 7 9 5 8 8 7 4 4 3 3 2 7 10 11 17 26 30 35 31 31 32 33 32 33 33 34 35 36 35 32 29 25 22 20 16 12 8 6 7 7 5 1
8 8 9 12 10 11 12 9 8 4 4 7 5 15 9 20 24 27 34 32 27 28 29 31 31 31 32 33 33 34 33 31 29 23 22 21 20 16 13 8 6 8 5 2
12 6 9 6 6 11 13 12 10 13 13 13 5 11 22 27 25 27 33 26 23 25 26 28 29 30 31 32 32 31 31 31 28 25 21 21 20 17 15 12 10 13 10 4
14 13 13 14 17 18 21 24 19 18 18 20 31 35 21 20 24 26 23 22 21 21 23 25 28 29 29 30 30 29 30 30 28 27 22 19 19 18 16 13 14 15 13 6
14 16 19 23 20 23 27 26 22 27 28 30 29 34 16 20 17 17 20 20 18 20 22 23 25 27 28 28 29 29 28 29 29 26 25 21 19 20 18 15 18 14 13 10
22 17 23 32 22 15 24 23 23 24 26 29 26 23 18 13 16 20 22 23 19 21 21 23 23 24 25 26 28 28 27 27 28 27 26 24 21 22 21 19 18 17 14 10
25 22 20 17 13 22 20 1 6 9 13 12 18 19 20 12 12 19 22 20 20 20 20 21 21 21 22 24 26 27 26 26 25 26 26 25 25 22 21 21 20 16 18 12
25 20 14 16 18 4 2 8 13 16 20 22 21 20 18 10 13 21 18 18 19 20 19 19 19 19 20 21 23 24 25 24 24 24 24 25 25 24 22 20 20 17 17 15
14 17 10 6 7 22 5 3 6 9 16 17 16 11 12 16 20 22 23 21 19 20 19 18 18 18 18 19 20 21 22 23 23 23 22 23 23 24 23 21 17 16 16 15
10 11 14 8 4 6 4 8 14 18 10 6 7 11 12 19 29 30 31 24 17 17 18 18 18 17 16 17 17 18 19 20 21 22 22 22 21 22 21 20 19 18 15 12
15 16 22 22 14 17 20 11 7 4 6 12 13 17 20 30 32 32 25 24 20 16 16 16 16 16 15 15 16 17 18 19 20 21 21 21 22 21 19 18 17 16 15 14
14 11 13 12 11 12 6 6 14 20 23 23 26 30 29 27 27 23 25 23 21 17 15 14 14 14 14 14 14 14 15 16 17 18 19 20 20 19 19 18 17 15 13 11
21 26 22 19 19 20 24 32 31 30 29 29 32 28 23 22 22 21 22 21 20 21 20 17 14 13 13 13 12 14 14 14 15 15 16 17 17 18 18 17 16 16 15 14
28 26 33 31 34 32 33 33 34 36 36 31 27 24 24 28 30 28 25 23 21 21 21 18 15 11 11 14 13 13 15 15 14 15 15 16 17 17 17 18 18 17 17 17
33 33 36 38 34 34 21 22 27 30 33 30 32 27 28 32 33 34 28 26 24 20 19 19 16 12 11 14 14 14 16 18 18 18 18 18 18 18 18 18 19 20 21 20
39 36 35 30 14 23 22 21 21 26 28 27 30 32 32 35 31 26 23 23 23 19 17 16 16 15 13 14 15 15 17 20 21 22 22 23 23 22 22 22 22 23 24 25
Wind_Direction
61 83 74 86 76 84 58 3 319 302 329 335 328 333 312 311 317 331 350 338 337 331 326 324 322 323 323 321 320 321 308 303 303 302 300 301 304 308 299 291 288 293 288 243
57 50 56 56 36 2 336 345 263 286 284 316 306 314 274 290 297 328 344 341 333 327 329 329 331 329 328 328 326 323 307 302 306 310 308 304 309 298 298 299 274 264 244 243
64 67 41 41 21 1 344 359 21 326 322 303 298 293 287 287 290 306 342 335 335 336 337 335 334 334 335 331 328 329 317 310 310 310 311 314 312 295 304 291 269 241 226 212
50 50 38 26 20 16 16 356 335 341 342 296 291 288 295 250 272 314 336 334 339 341 340 338 339 339 337 335 334 332 321 309 313 320 323 321 332 327 316 289 257 250 224 214
28 31 36 28 18 10 356 355 288 289 319 312 223 263 285 242 284 302 329 342 348 342 339 343 342 342 341 340 335 337 332 322 320 328 329 327 328 314 319 287 255 251 238 245
10 18 21 20 15 10 9 343 255 249 302 294 220 251 280 252 293 307 340 351 347 343 344 345 344 345 344 341 341 342 338 325 329 332 336 336 328 325 316 309 283 250 224 232
336 339 3 7 6 13 7 18 357 3 350 231 202 283 261 282 292 329 344 349 345 349 347 346 346 346 345 345 346 347 344 334 338 343 342 334 331 325 316 334 8 265 242 232
333 325 354 347 355 357 16 31 38 276 260 292 285 242 294 289 307 333 344 345 349 347 349 348 346 347 349 350 350 351 352 350 347 355 344 342 337 329 333 27 356 330 294 226
317 293 327 336 346 3 348 359 351 286 270 291 264 275 287 289 314 335 338 345 347 348 349 348 346 348 352 354 355 356 359 357 353 355 349 351 355 5 14 355 360 340 30 234
316 299 311 320 321 283 339 338 310 298 356 291 282 283 268 301 319 336 338 342 344 348 348 347 348 351 355 357 360 1 2 359 356 357 359 1 359 358 9 340 6 354 354 311
309 279 295 305 295 285 301 299 302 289 246 205 290 280 316 313 318 339 334 339 338 344 348 348 349 352 356 0 3 5 3 1 1 0 2 12 14 12 354 14 360 12 20 333
292 290 280 293 287 274 282 272 293 275 242 234 260 284 314 334 335 336 330 334 334 341 348 349 351 354 356 1 6 8 7 6 5 5 4 18 23 24 27 22 11 58 58 96
302 280 301 294 285 274 253 267 278 270 255 247 227 267 314 319 327 328 324 328 332 337 346 350 353 356 358 1 6 10 11 12 10 11 9 19 27 31 33 40 56 72 65 111
302 278 269 266 289 286 274 280 279 257 259 264 262 291 310 319 321 316 320 324 327 334 342 351 354 357 358 1 5 10 15 17 17 16 15 23 32 35 40 50 64 72 81 116
299 290 292 296 295 290 284 280 270 259 264 257 292 292 324 323 309 325 332 333 333 335 341 351 355 356 358 1 4 11 15 22 25 22 24 27 36 43 45 54 69 67 87 111
295 291 300 301 310 281 283 283 277 268 269 268 281 295 329 313 310 331 333 340 340 333 337 347 353 355 356 1 5 9 13 20 27 30 30 34 40 47 51 55 72 78 75 89
289 289 298 297 304 300 294 190 278 274 284 300 281 313 327 308 311 328 337 335 338 333 335 338 347 353 356 1 6 6 11 16 23 31 36 36 45 50 52 55 62 75 84 76
278 279 286 291 317 332 255 279 277 276 296 301 296 304 308 295 322 338 333 330 331 334 330 333 341 349 356 1 4 6 8 12 18 28 34 40 42 49 57 59 60 67 80 86
265 263 269 272 288 293 304 317 316 299 309 301 295 293 308 311 312 322 327 327 327 329 330 329 335 345 354 359 2 4 7 10 14 20 28 36 44 48 49 57 69 72 71 80
249 254 245 260 255 258 271 293 302 311 312 295 306 295 299 304 309 318 320 320 324 323 329 329 330 336 345 353 356 360 4 8 12 15 19 24 32 40 45 46 48 59 71 81
237 245 248 251 252 275 309 289 288 332 330 310 281 278 290 298 300 306 312 317 320 320 320 323 323 326 333 344 351 357 360 4 7 10 15 17 18 25 28 32 37 40 43 48
252 247 244 232 230 271 280 261 298 305 309 306 302 295 300 303 301 301 309 314 314 316 319 317 321 321 324 332 340 348 354 358 3 4 7 9 11 12 13 15 15 17 22 24
247 260 264 262 263 269 277 285 296 300 297 308 303 297 292 307 322 320 303 308 313 313 315 320 315 317 313 315 322 327 339 348 351 356 357 1 3 1 1 1 359 356 352 350
269 269 265 271 283 295 295 293 293 294 295 298 286 289 297 304 310 311 308 307 308 310 315 312 312 309 305 301 306 307 315 324 331 335 337 339 344 346 345 344 342 338 333 330
276 277 275 283 298 296 292 288 285 277 271 266 264 279 288 295 299 301 301 302 301 305 307 307 311 304 303 296 300 302 304 306 310 313 315 316 317 318 320 323 322 322 319 316
281 287 281 291 307 299 271 272 274 275 269 259 262 270 277 285 295 298 296 292 294 297 302 304 305 308 314 312 311 309 302 299 298 297 298 298 298 300 302 304 307 310 307 307